STARLINK-5697, 55589

Orbit data source: Space-Track

STARLINK-5697, 55589 is a payload satellite owned by SpaceX/Seattle (US) in LEO that was launched on Sun, 12 Feb 2023 UTC via an FALCON 9 launch vehicle from the Air Force Eastern Test Range (AFETR). Payload-class satellites include a variety of spacecraft equipped with specific instruments for various scientific and technological missions. These include communications satellites like Starlink; space stations such as the ISS; scientific satellites like the Hubble; Earth observation satellites from companies like Planet Labs, Umbra, and HawkEye 360; GPS; miniature CubeSats for education and research; and military/defense satellites.

Loading next visibility...
Identifier
55589, 2023-020W
Orbit
LEO
Country
Flag of USUS
Related business
Manufacturer
SpaceX/Seattle
Mission
Operational Commercial Communications
Bus & Motor
STARLINK, Unknown motor
Mass
305 kg wet, ~290 kg dry
Launch date (UTC)
2023-02-12 (3 years ago)
Launch vehicle
FALCON 9
Launch site
Air Force Eastern Test Range (AFETR)
Object type
Payload
Rocket body
Debris
Shape & HBR
Box + 1 Pan, 10.1 m
Radar Cross Section
13.562 m², Large (>1 m²)

Expand to show TLE details & history
Last TLE update: 3 days ago

TLE from 3 days ago
0 STARLINK-5697
1 55589U 23020W   26170.96050342  .00000796  00000-0  38438-4 0  9996
2 55589  43.0013 147.6409 0001096 274.8245  85.2482 15.27579115184559
Epoch: 2026-06-19T23:03Z
TLE epoch observation values (Epoch: 2026-06-19T23:03:07.495Z)
Latitude
0.00002°
Longitude
-106.32229°
Altitude
482.765 km
Speed
7.626 km/s
True Right ascension
09h 50m 33s
True Declination
0° 00' 00"
Sunlit
Object was in daylight at epoch
Visualization orbit readout
Latitude
Unknown
Longitude
Unknown
Altitude
Unknown
Speed
Unknown
Apparent Right ascension
Unknown
Apparent Declination
Unknown
Sunlit
N/A
Visualization observer readout
Local Sidereal Time
00:55:51
Azimuth
Unknown
Elevation
Unknown
Doppler factor
Unknown
Orbital elements
Apogee altitude
485.749 km
Perigee altitude
484.245 km
Semi-major axis
6,863.134 km
Eccentricity
0.00011
Inclination
43.0013°
RAAN
147.6409°
Arg. of periapsis
274.8245°
True anomaly
85.26072°
Mean anomaly
85.2482°
Eccentric anomaly
85.25446°
Mean motion
3.81733 °/min
Orbital period
94.31 mins
BSTAR
0.000038438
Loading maneuver chart data...
Computing Atmospheric mass density...
Loading historical data...
Loading historical data...
Loading historical data...
Loading historical data...
Loading historical data...
Loading historical data...
Loading historical data...

Documentation

Showing up to 5 results
|